Hettinger, ND

11:25 PM MDT on August 19, 2017 (GMT -0600)
Hettinger Municipal

Weather History for KHEI - February, 2014

Change the Weather History Date:

Saturday, February 1, 2014

  Actual Average Record
Temperature  
Mean Temperature 1 °F -  
Max Temperature 9 °F 29 °F 50 °F (2005)
Min Temperature -8 °F 7 °F -26 °F (2011)
Degree Days  
Heating Degree Days 64 47  
Month to date heating degree days 64 47  
Since 1 July heating degree days 5253 5123  
Moisture  
Dew Point -3 °F    
Average Humidity 72    
Maximum Humidity 79    
Minimum Humidity 63    
Precipitation  
Precipitation T in 0.02 in 0.14 in (2003)
Month to date precipitation T 0.02  
Year to date precipitation 0.14 0.33  
Sea Level Pressure  
Sea Level Pressure 30.16 in    
Wind  
Wind Speed 14 mph (WNW)    
Max Wind Speed 26 mph    
Max Gust Speed 33 mph    
Visibility 9 miles    
Events Snow    
T = Trace of Precipitation, MM = Missing Value Source: NWS Daily Summary

Daily Weather History Graph

Daily Weather History Graph

Search for Another Location

Airport or City:

Trip Planner

Search our weather history database for the weather conditions in past years. The results will help you decide how hot, cold, wet, or windy it might be!

Date:

Astronomy

Feb. 01, 2014 Rise Set
Actual Time 7:12 AM MST 4:56 PM MST
Civil Twilight 6:40 AM MST 5:28 PM MST
Nautical Twilight 6:05 AM MST 6:03 PM MST
Astronomical Twilight 5:30 AM MST 6:38 PM MST
Moon 7:54 AM MST (2/1) 7:45 PM MST (2/1)
Length of Visible Light 10h 47m
Length of Day
9h 43m
Waxing Crescent, 5% of the Moon is Illuminated
Feb 1
Waxing Crescent
Feb 6
First Quarter
Feb 14
Full
Feb 22
Last Quarter
Mar 1
New

Hourly Weather History & Observations

Time (MST) Temp. Windchill Dew Point Humidity Pressure Visibility Wind Dir Wind Speed Gust Speed Precip Events Conditions
12:53 AM 8.1 °F -10.2 °F 1.0 °F 73% 30.03 in 10.0 mi NW 17.3 mph 28.8 mph 0.00 in   Overcast
1:53 AM 5.0 °F -13.0 °F -2.0 °F 73% 30.06 in 10.0 mi NW 15.0 mph - 0.00 in   Partly Cloudy
2:29 AM 3.9 °F -13.0 °F -2.0 °F 76% 29.92 in 10.0 mi NW 12.7 mph - N/A   Mostly Cloudy
2:53 AM 3.9 °F -16.1 °F -2.0 °F 76% 30.09 in 10.0 mi NW 18.4 mph - N/A   Mostly Cloudy
3:10 AM 1.9 °F -18.1 °F -4.0 °F 76% 29.93 in 10.0 mi NW 17.3 mph - N/A   Scattered Clouds
3:53 AM -0.0 °F -18.0 °F -5.1 °F 79% 30.13 in 10.0 mi NW 12.7 mph - N/A   Clear
4:12 AM -0.0 °F -17.1 °F -6.0 °F 76% 29.96 in 10.0 mi WNW 11.5 mph - N/A   Mostly Cloudy
4:53 AM 1.9 °F -17.5 °F -4.0 °F 76% 30.14 in 10.0 mi NW 16.1 mph - N/A   Overcast
5:19 AM 1.0 °F -16.6 °F -5.1 °F 75% 29.99 in 10.0 mi NW 12.7 mph - N/A   Scattered Clouds
5:34 AM -0.0 °F -14.2 °F -5.1 °F 79% 29.99 in 10.0 mi NW 8.1 mph - N/A   Mostly Cloudy
5:53 AM -0.0 °F - -5.1 °F 79% 30.18 in 10.0 mi Calm Calm - N/A   Overcast
6:53 AM -0.9 °F -14.1 °F -7.1 °F 75% 30.21 in 10.0 mi WNW 6.9 mph - N/A   Overcast
7:53 AM 1.0 °F -17.3 °F -5.1 °F 75% 30.22 in 10.0 mi WNW 13.8 mph - N/A   Overcast
8:14 AM 1.0 °F -17.3 °F -5.1 °F 75% 30.05 in 10.0 mi WNW 13.8 mph - N/A   Scattered Clouds
8:53 AM 3.0 °F -15.5 °F -4.0 °F 73% 30.24 in 10.0 mi West 15.0 mph - N/A   Overcast
9:32 AM 3.9 °F -14.3 °F -2.0 °F 76% 30.07 in 2.5 mi WNW 15.0 mph - 0.00 in Snow Light Snow
9:39 AM 3.9 °F -17.1 °F -2.9 °F 73% 30.08 in 3.0 mi WNW 20.7 mph 25.3 mph 0.00 in Snow Light Snow
9:53 AM 5.0 °F -16.2 °F -2.0 °F 73% 30.25 in 2.5 mi WNW 21.9 mph - 0.00 in Snow Light Snow
10:07 AM 5.0 °F -15.7 °F -2.9 °F 70% 30.09 in 3.0 mi WNW 20.7 mph - 0.00 in Snow Light Snow
10:53 AM 5.0 °F -15.7 °F -2.9 °F 70% 30.26 in 7.0 mi WNW 20.7 mph - 0.00 in   Overcast
11:53 AM 7.0 °F -13.1 °F -2.0 °F 67% 30.25 in 3.0 mi WNW 20.7 mph - 0.00 in Snow Light Snow
12:53 PM 9.0 °F -8.5 °F -0.9 °F 64% 30.24 in 10.0 mi West 16.1 mph - 0.00 in   Overcast
1:43 PM 8.1 °F -11.7 °F -0.9 °F 67% 30.06 in 9.0 mi WNW 20.7 mph - N/A   Overcast
1:53 PM 9.0 °F -7.9 °F -0.9 °F 64% 30.23 in 10.0 mi WNW 15.0 mph - N/A   Overcast
2:53 PM 9.0 °F -10.0 °F -2.0 °F 61% 30.25 in 10.0 mi WNW 19.6 mph - 0.00 in   Overcast
3:53 PM 7.0 °F -12.6 °F -2.0 °F 67% 30.27 in 10.0 mi WNW 19.6 mph - 0.00 in   Mostly Cloudy
4:53 PM 7.0 °F -10.4 °F -2.9 °F 64% 30.27 in 10.0 mi WNW 15.0 mph - N/A   Overcast
5:53 PM 8.1 °F -9.0 °F -0.9 °F 67% 30.28 in 10.0 mi WNW 15.0 mph 23.0 mph N/A   Overcast
6:53 PM 7.0 °F -9.8 °F -2.0 °F 67% 30.30 in 10.0 mi WNW 13.8 mph - N/A   Overcast
7:53 PM 7.0 °F -7.5 °F -0.9 °F 70% 30.29 in 10.0 mi West 10.4 mph - N/A   Overcast
8:53 PM 8.1 °F -6.2 °F -0.9 °F 67% 30.27 in 10.0 mi West 10.4 mph - N/A   Overcast
9:53 PM 6.1 °F -8.7 °F -0.0 °F 76% 30.27 in 10.0 mi WSW 10.4 mph - N/A   Overcast
10:53 PM 1.9 °F -12.9 °F -5.1 °F 72% 30.27 in 10.0 mi WSW 9.2 mph - N/A   Mostly Cloudy
11:00 PM -0.0 °F -14.2 °F -6.0 °F 76% 30.08 in 10.0 mi West 8.1 mph - N/A   Scattered Clouds
11:53 PM -6.0 °F -18.6 °F -9.9 °F 83% 30.27 in 10.0 mi WNW 5.8 mph - N/A   Clear